Location: Park Creek Village Mobile Home Park
(38.2885°N, 122.4714°W)
Time: 15:02:30
(UTC+00:00)

Cosmos 1655 Rocket - Pass Details

Date: 14 December 2019
Orbit: 970 x 1006 km, 83.0° (Epoch: 26 January)

Event Time Altitude Azimuth Distance (km) Brightness Sun altitude
Rises 13:50:11 0° 352° (N) 3,672 6.8 -16.8°
Reaches altitude 10° 13:52:42 10° 352° (N) 2,721 6.1 -16.3°
Maximum altitude 13:58:56 85° 265° (W) 980 3.9 -15.2°
Drops below altitude 10° 14:05:09 10° 177° (S) 2,712 6.6 -14.0°
Sets 14:07:39 0° 177° (S) 3,660 7.3 -13.5°
